When you browse on this site, cookies collect data to enhance your experience and personalize the content and advertising you see.
Visit our Privacy Policy to learn more. By continuing to use the site, you agree to this use of cookies and data.
  • în România
  • Lista ţărilor
  • Pe 7 zile
  • Temperatura apei
  • Hartă satelitară
  • Meteo pe hartă
  • Widget-uri
  • user-avatar
    Intrare

    Meteo pe oră la Cambridge

    Astăzi, 19 Februarie, Marţi

    Timp Temperatura Precipitaţii Vânt Presiune Umiditate
    00:00 +3°C° 0 mm 5 m/s 759 mmHg 88%
    01:00 +3°C° 0 mm 5 m/s 759 mmHg 90%
    02:00 +3°C° 0 mm 5 m/s 760 mmHg 91%
    03:00 +3°C° 0 mm 5 m/s 760 mmHg 93%
    04:00 +3°C° 0 mm 4 m/s 760 mmHg 93%
    05:00 +3°C° 0 mm 4 m/s 760 mmHg 94%
    06:00 +3°C° 0 mm 4 m/s 760 mmHg 94%
    07:00 +4°C° 0 mm 4 m/s 761 mmHg 91%
    08:00 +3°C° 0 mm 5 m/s 761 mmHg 89%
    09:00 +5°C° 0 mm 5 m/s 761 mmHg 86%
    10:00 +6°C° 0 mm 5 m/s 761 mmHg 80%
    11:00 +7°C° 0 mm 5 m/s 762 mmHg 74%
    12:00 +8°C° 0 mm 5 m/s 762 mmHg 68%
    13:00 +9°C° 0 mm 5 m/s 762 mmHg 67%
    14:00 +9°C° 0 mm 5 m/s 762 mmHg 66%
    15:00 +9°C° 0 mm 5 m/s 761 mmHg 65%
    16:00 +8°C° 0 mm 5 m/s 761 mmHg 68%
    17:00 +8°C° 0 mm 4 m/s 761 mmHg 72%
    18:00 +8°C° 0 mm 3 m/s 761 mmHg 76%
    19:00 +7°C° 0 mm 4 m/s 761 mmHg 77%
    20:00 +7°C° 0 mm 5 m/s 761 mmHg 78%
    21:00 +7°C° 0 mm 5 m/s 761 mmHg 79%
    22:00 +7°C° 0.1 mm 5 m/s 761 mmHg 79%
    23:00 +7°C° 0.1 mm 6 m/s 761 mmHg 80%

    Mâine, 20 Februarie, Miercuri

    Timp Temperatura Precipitaţii Vânt Presiune Umiditate
    00:00 +5°C° 0.1 mm 6 m/s 761 mmHg 81%
    01:00 +5°C° 0.1 mm 6 m/s 761 mmHg 82%
    02:00 +6°C° 0.1 mm 7 m/s 761 mmHg 82%
    03:00 +6°C° 0.1 mm 7 m/s 760 mmHg 83%
    04:00 +6°C° 0.1 mm 7 m/s 760 mmHg 84%
    05:00 +6°C° 0.1 mm 7 m/s 760 mmHg 85%
    06:00 +6°C° 0.1 mm 7 m/s 761 mmHg 85%
    07:00 +6°C° 0 mm 7 m/s 761 mmHg 84%
    08:00 +6°C° 0 mm 7 m/s 761 mmHg 83%
    09:00 +8°C° 0 mm 7 m/s 761 mmHg 82%
    10:00 +8°C° 0 mm 7 m/s 762 mmHg 80%
    11:00 +9°C° 0 mm 7 m/s 762 mmHg 78%
    12:00 +10°C° 0 mm 7 m/s 762 mmHg 76%
    13:00 +10°C° 0 mm 7 m/s 762 mmHg 76%
    14:00 +10°C° 0 mm 7 m/s 762 mmHg 76%
    15:00 +10°C° 0 mm 7 m/s 762 mmHg 76%
    16:00 +9°C° 0 mm 6 m/s 763 mmHg 78%
    17:00 +9°C° 0 mm 6 m/s 763 mmHg 80%
    18:00 +8°C° 0 mm 5 m/s 763 mmHg 82%
    19:00 +8°C° 0 mm 5 m/s 764 mmHg 84%
    20:00 +8°C° 0 mm 5 m/s 764 mmHg 85%
    21:00 +7°C° 0 mm 5 m/s 764 mmHg 86%
    22:00 +7°C° 0 mm 5 m/s 764 mmHg 88%
    23:00 +7°C° 0 mm 5 m/s 765 mmHg 90%

    Poimâine, 21 Februarie, Joi

    Timp Temperatura Precipitaţii Vânt Presiune Umiditate
    00:00 +6°C° 0 mm 5 m/s 765 mmHg 92%
    01:00 +6°C° 0 mm 5 m/s 765 mmHg 93%
    02:00 +6°C° 0 mm 4 m/s 766 mmHg 94%
    03:00 +6°C° 0 mm 4 m/s 766 mmHg 94%
    04:00 +5°C° 0 mm 4 m/s 766 mmHg 95%
    05:00 +5°C° 0 mm 3 m/s 766 mmHg 95%
    06:00 +5°C° 0 mm 3 m/s 767 mmHg 96%
    07:00 +5°C° 0 mm 3 m/s 767 mmHg 94%
    08:00 +7°C° 0 mm 3 m/s 767 mmHg 92%
    09:00 +7°C° 0 mm 4 m/s 768 mmHg 90%
    10:00 +8°C° 0 mm 4 m/s 768 mmHg 84%
    11:00 +11°C° 0 mm 4 m/s 769 mmHg 78%
    12:00 +12°C° 0 mm 5 m/s 769 mmHg 73%
    13:00 +12°C° 0 mm 4 m/s 769 mmHg 71%
    14:00 +13°C° 0 mm 4 m/s 769 mmHg 69%
    15:00 +13°C° 0 mm 4 m/s 769 mmHg 67%
    16:00 +12°C° 0 mm 4 m/s 769 mmHg 73%
    17:00 +10°C° 0 mm 3 m/s 770 mmHg 79%
    18:00 +9°C° 0 mm 3 m/s 770 mmHg 85%
    19:00 +8°C° 0 mm 3 m/s 771 mmHg 86%
    20:00 +8°C° 0 mm 3 m/s 771 mmHg 88%
    21:00 +7°C° 0 mm 3 m/s 772 mmHg 90%
    22:00 +7°C° 0 mm 3 m/s 772 mmHg 90%
    23:00 +7°C° 0 mm 3 m/s 772 mmHg 91%

    22 Februarie, Vineri

    Timp Temperatura Precipitaţii Vânt Presiune Umiditate
    00:00 +5°C° 0 mm 3 m/s 773 mmHg 91%
    01:00 +5°C° 0 mm 3 m/s 773 mmHg 90%
    02:00 +5°C° 0 mm 3 m/s 773 mmHg 89%
    03:00 +5°C° 0 mm 3 m/s 773 mmHg 88%
    04:00 +5°C° 0 mm 3 m/s 774 mmHg 87%
    05:00 +4°C° 0 mm 3 m/s 774 mmHg 87%
    06:00 +4°C° 0 mm 3 m/s 774 mmHg 86%
    07:00 +5°C° 0 mm 3 m/s 774 mmHg 84%
    08:00 +7°C° 0 mm 3 m/s 775 mmHg 82%
    09:00 +8°C° 0 mm 3 m/s 775 mmHg 80%
    10:00 +10°C° 0 mm 3 m/s 775 mmHg 76%
    11:00 +12°C° 0 mm 3 m/s 776 mmHg 72%
    12:00 +13°C° 0 mm 3 m/s 776 mmHg 68%
    13:00 +14°C° 0 mm 4 m/s 776 mmHg 67%
    14:00 +14°C° 0 mm 4 m/s 775 mmHg 67%
    15:00 +14°C° 0 mm 4 m/s 775 mmHg 66%
    16:00 +13°C° 0 mm 3 m/s 775 mmHg 73%
    17:00 +11°C° 0 mm 3 m/s 775 mmHg 80%
    18:00 +9°C° 0 mm 3 m/s 775 mmHg 88%
    19:00 +9°C° 0 mm 3 m/s 775 mmHg 89%
    20:00 +8°C° 0 mm 3 m/s 776 mmHg 90%
    21:00 +7°C° 0 mm 3 m/s 776 mmHg 91%
    22:00 +7°C° 0 mm 3 m/s 776 mmHg 91%
    23:00 +7°C° 0 mm 3 m/s 776 mmHg 91%

    23 Februarie, Sâmbătă

    Timp Temperatura Precipitaţii Vânt Presiune Umiditate
    00:00 +7°C° 0 mm 3 m/s 776 mmHg 91%
    01:00 +7°C° 0 mm 3 m/s 776 mmHg 91%
    02:00 +7°C° 0 mm 3 m/s 776 mmHg 91%
    03:00 +7°C° 0 mm 3 m/s 775 mmHg 90%
    04:00 +5°C° 0 mm 3 m/s 775 mmHg 90%
    05:00 +5°C° 0 mm 3 m/s 775 mmHg 89%
    06:00 +5°C° 0 mm 3 m/s 775 mmHg 88%
    07:00 +7°C° 0 mm 3 m/s 775 mmHg 84%
    08:00 +8°C° 0 mm 3 m/s 775 mmHg 80%
    09:00 +9°C° 0 mm 3 m/s 775 mmHg 75%
    10:00 +11°C° 0 mm 3 m/s 775 mmHg 70%
    11:00 +12°C° 0 mm 4 m/s 775 mmHg 64%
    12:00 +14°C° 0 mm 4 m/s 775 mmHg 59%
    13:00 +14°C° 0 mm 4 m/s 775 mmHg 59%
    14:00 +14°C° 0 mm 4 m/s 774 mmHg 60%
    15:00 +15°C° 0 mm 4 m/s 774 mmHg 61%
    16:00 +13°C° 0 mm 4 m/s 774 mmHg 69%
    17:00 +11°C° 0 mm 3 m/s 774 mmHg 77%
    18:00 +9°C° 0 mm 3 m/s 773 mmHg 85%
    19:00 +9°C° 0 mm 3 m/s 773 mmHg 87%
    20:00 +9°C° 0 mm 3 m/s 773 mmHg 88%
    21:00 +8°C° 0 mm 3 m/s 773 mmHg 89%
    22:00 +8°C° 0 mm 3 m/s 773 mmHg 90%
    23:00 +8°C° 0 mm 3 m/s 773 mmHg 91%

    24 Februarie, Duminică

    Timp Temperatura Precipitaţii Vânt Presiune Umiditate
    00:00 +8°C° 0 mm 3 m/s 773 mmHg 91%
    01:00 +8°C° 0 mm 3 m/s 773 mmHg 91%
    02:00 +8°C° 0 mm 2 m/s 773 mmHg 91%
    03:00 +7°C° 0 mm 2 m/s 773 mmHg 92%
    04:00 +7°C° 0 mm 2 m/s 773 mmHg 92%
    05:00 +7°C° 0 mm 2 m/s 773 mmHg 92%
    06:00 +7°C° 0 mm 2 m/s 773 mmHg 93%
    07:00 +8°C° 0 mm 2 m/s 773 mmHg 90%
    08:00 +9°C° 0 mm 3 m/s 773 mmHg 87%
    09:00 +10°C° 0 mm 3 m/s 774 mmHg 84%
    10:00 +11°C° 0 mm 3 m/s 774 mmHg 77%
    11:00 +13°C° 0 mm 3 m/s 774 mmHg 70%
    12:00 +14°C° 0 mm 4 m/s 774 mmHg 63%
    13:00 +15°C° 0 mm 4 m/s 774 mmHg 66%
    14:00 +15°C° 0 mm 5 m/s 774 mmHg 69%
    15:00 +15°C° 0 mm 5 m/s 775 mmHg 71%
    16:00 +14°C° 0 mm 4 m/s 775 mmHg 77%
    17:00 +12°C° 0 mm 3 m/s 776 mmHg 83%
    18:00 +10°C° 0 mm 3 m/s 776 mmHg 88%
    19:00 +10°C° 0 mm 3 m/s 776 mmHg 89%
    20:00 +9°C° 0 mm 3 m/s 777 mmHg 90%
    21:00 +8°C° 0 mm 3 m/s 777 mmHg 90%
    22:00 +8°C° 0 mm 2 m/s 778 mmHg 90%
    23:00 +7°C° 0 mm 2 m/s 778 mmHg 90%
    Arată mai mult